When you browse on this site, cookies collect data to enhance your experience and personalize the content and advertising you see.
Visit our Privacy Policy to learn more. By continuing to use the site, you agree to this use of cookies and data.

Hourly Weather Benguela

Today, 13 July, Monday

Time Temperature Precipitation Wind Pressure Humidity
00:00 +21°C° 0 mm 2 mps 761 mmHg 87%
01:00 +20°C° 0 mm 2 mps 761 mmHg 91%
02:00 +20°C° 0 mm 2 mps 760 mmHg 91%
03:00 +20°C° 0 mm 2 mps 760 mmHg 91%
04:00 +19°C° 0 mm 2 mps 759 mmHg 91%
05:00 +20°C° 0 mm 2 mps 759 mmHg 91%
06:00 +21°C° 0 mm 1 mps 760 mmHg 91%
07:00 +21°C° 0 mm 1 mps 760 mmHg 92%
08:00 +23°C° 0 mm 1 mps 760 mmHg 81%
09:00 +26°C° 0 mm 1 mps 760 mmHg 69%
10:00 +28°C° 0 mm 2 mps 760 mmHg 58%
11:00 +29°C° 0 mm 2 mps 759 mmHg 58%
12:00 +29°C° 0 mm 3 mps 759 mmHg 57%
13:00 +30°C° 0 mm 4 mps 758 mmHg 57%
14:00 +29°C° 0 mm 4 mps 758 mmHg 59%
15:00 +28°C° 0 mm 3 mps 757 mmHg 62%
16:00 +28°C° 0 mm 3 mps 756 mmHg 65%
17:00 +26°C° 0 mm 3 mps 757 mmHg 74%
18:00 +24°C° 0 mm 3 mps 758 mmHg 83%
19:00 +21°C° 0 mm 2 mps 758 mmHg 92%
20:00 +21°C° 0 mm 2 mps 758 mmHg 92%
21:00 +21°C° 0 mm 1 mps 759 mmHg 93%
22:00 +19°C° 0 mm 0 mps 759 mmHg 94%
23:00 +20°C° 0 mm 1 mps 759 mmHg 93%

Tomorrow, 14 July, Tuesday

Time Temperature Precipitation Wind Pressure Humidity
00:00 +20°C° 0 mm 1 mps 759 mmHg 93%
01:00 +20°C° 0 mm 1 mps 759 mmHg 93%
02:00 +20°C° 0 mm 1 mps 759 mmHg 93%
03:00 +19°C° 0 mm 1 mps 758 mmHg 94%
04:00 +19°C° 0 mm 1 mps 758 mmHg 94%
05:00 +20°C° 0 mm 1 mps 759 mmHg 94%
06:00 +20°C° 0 mm 1 mps 759 mmHg 93%
07:00 +20°C° 0 mm 1 mps 759 mmHg 93%
08:00 +23°C° 0 mm 2 mps 759 mmHg 79%
09:00 +25°C° 0 mm 2 mps 759 mmHg 65%
10:00 +28°C° 0 mm 3 mps 759 mmHg 51%
11:00 +29°C° 0 mm 3 mps 758 mmHg 50%
12:00 +30°C° 0 mm 4 mps 758 mmHg 49%
13:00 +32°C° 0 mm 4 mps 757 mmHg 47%
14:00 +30°C° 0 mm 4 mps 756 mmHg 53%
15:00 +29°C° 0 mm 4 mps 756 mmHg 58%
16:00 +28°C° 0 mm 3 mps 755 mmHg 63%
17:00 +26°C° 0 mm 3 mps 756 mmHg 72%
18:00 +24°C° 0 mm 2 mps 757 mmHg 81%
19:00 +22°C° 0 mm 1 mps 757 mmHg 91%
20:00 +22°C° 0 mm 1 mps 758 mmHg 89%
21:00 +22°C° 0 mm 1 mps 758 mmHg 88%
22:00 +22°C° 0 mm 1 mps 759 mmHg 87%
23:00 +19°C° 0 mm 0 mps 759 mmHg 89%

Day after tomorrow, 15 July, Wednesday

Time Temperature Precipitation Wind Pressure Humidity
00:00 +18°C° 0 mm 0 mps 759 mmHg 90%
01:00 +17°C° 0 mm 0 mps 759 mmHg 92%
02:00 +19°C° 0 mm 1 mps 759 mmHg 92%
03:00 +19°C° 0 mm 1 mps 759 mmHg 92%
04:00 +19°C° 0 mm 1 mps 758 mmHg 92%
05:00 +19°C° 0 mm 1 mps 759 mmHg 91%
06:00 +20°C° 0 mm 1 mps 760 mmHg 89%
07:00 +20°C° 0 mm 1 mps 760 mmHg 88%
08:00 +23°C° 0 mm 1 mps 760 mmHg 73%
09:00 +26°C° 0 mm 1 mps 760 mmHg 57%
10:00 +30°C° 0 mm 1 mps 760 mmHg 42%
11:00 +30°C° 0 mm 2 mps 759 mmHg 43%
12:00 +31°C° 0 mm 3 mps 759 mmHg 44%
13:00 +33°C° 0 mm 4 mps 758 mmHg 45%
14:00 +32°C° 0 mm 4 mps 757 mmHg 50%
15:00 +30°C° 0 mm 4 mps 757 mmHg 55%
16:00 +28°C° 0 mm 3 mps 757 mmHg 60%
17:00 +26°C° 0 mm 3 mps 757 mmHg 71%
18:00 +24°C° 0 mm 2 mps 758 mmHg 81%
19:00 +22°C° 0 mm 1 mps 759 mmHg 91%
20:00 +22°C° 0 mm 1 mps 759 mmHg 91%
21:00 +22°C° 0 mm 1 mps 760 mmHg 91%
22:00 +22°C° 0 mm 1 mps 760 mmHg 90%
23:00 +21°C° 0 mm 1 mps 760 mmHg 91%

16 July, Thursday

Time Temperature Precipitation Wind Pressure Humidity
00:00 +21°C° 0 mm 1 mps 760 mmHg 91%
01:00 +19°C° 0 mm 2 mps 760 mmHg 91%
02:00 +20°C° 0 mm 1 mps 760 mmHg 92%
03:00 +19°C° 0 mm 1 mps 760 mmHg 92%
04:00 +17°C° 0 mm 0 mps 760 mmHg 92%
05:00 +17°C° 0 mm 0 mps 761 mmHg 91%
06:00 +20°C° 0 mm 1 mps 761 mmHg 90%
07:00 +20°C° 0 mm 1 mps 762 mmHg 89%
08:00 +23°C° 0 mm 1 mps 762 mmHg 75%
09:00 +26°C° 0 mm 1 mps 762 mmHg 61%
10:00 +29°C° 0 mm 1 mps 761 mmHg 47%
11:00 +29°C° 0 mm 2 mps 761 mmHg 49%
12:00 +30°C° 0 mm 4 mps 760 mmHg 50%
13:00 +30°C° 0 mm 5 mps 759 mmHg 51%
14:00 +29°C° 0 mm 4 mps 759 mmHg 55%
15:00 +29°C° 0 mm 4 mps 758 mmHg 58%
16:00 +28°C° 0 mm 3 mps 758 mmHg 61%
17:00 +26°C° 0 mm 2 mps 759 mmHg 70%
18:00 +24°C° 0 mm 2 mps 760 mmHg 80%
19:00 +22°C° 0 mm 1 mps 760 mmHg 89%
20:00 +22°C° 0 mm 1 mps 761 mmHg 89%
21:00 +22°C° 0 mm 1 mps 761 mmHg 89%
22:00 +22°C° 0 mm 1 mps 761 mmHg 88%
23:00 +21°C° 0 mm 1 mps 762 mmHg 90%

17 July, Friday

Time Temperature Precipitation Wind Pressure Humidity
00:00 +21°C° 0 mm 1 mps 762 mmHg 91%
01:00 +20°C° 0 mm 1 mps 762 mmHg 92%
02:00 +20°C° 0 mm 1 mps 761 mmHg 92%
03:00 +19°C° 0 mm 1 mps 761 mmHg 93%
04:00 +19°C° 0 mm 1 mps 761 mmHg 93%
05:00 +19°C° 0 mm 1 mps 762 mmHg 91%
06:00 +20°C° 0 mm 1 mps 762 mmHg 89%
07:00 +20°C° 0 mm 1 mps 762 mmHg 88%
08:00 +23°C° 0 mm 1 mps 762 mmHg 76%
09:00 +25°C° 0 mm 1 mps 762 mmHg 65%
10:00 +28°C° 0 mm 1 mps 762 mmHg 53%
11:00 +29°C° 0 mm 2 mps 761 mmHg 50%
12:00 +30°C° 0 mm 3 mps 760 mmHg 46%
13:00 +33°C° 0 mm 4 mps 759 mmHg 43%
14:00 +32°C° 0 mm 4 mps 759 mmHg 47%
15:00 +30°C° 0 mm 4 mps 758 mmHg 50%
16:00 +29°C° 0 mm 4 mps 758 mmHg 54%
17:00 +26°C° 0 mm 3 mps 758 mmHg 65%
18:00 +24°C° 0 mm 3 mps 759 mmHg 77%
19:00 +21°C° 0 mm 2 mps 760 mmHg 88%
20:00 +20°C° 0 mm 2 mps 760 mmHg 89%
21:00 +21°C° 0 mm 1 mps 760 mmHg 90%
22:00 +20°C° 0 mm 1 mps 761 mmHg 91%
23:00 +20°C° 0 mm 1 mps 761 mmHg 90%

18 July, Saturday

Time Temperature Precipitation Wind Pressure Humidity
00:00 +20°C° 0 mm 1 mps 760 mmHg 89%
01:00 +20°C° 0 mm 1 mps 760 mmHg 87%
02:00 +19°C° 0 mm 1 mps 760 mmHg 87%
03:00 +19°C° 0 mm 1 mps 760 mmHg 87%
04:00 +19°C° 0 mm 1 mps 760 mmHg 88%
05:00 +19°C° 0 mm 1 mps 761 mmHg 81%
06:00 +19°C° 0 mm 1 mps 761 mmHg 75%
07:00 +20°C° 0 mm 1 mps 762 mmHg 69%
08:00 +23°C° 0 mm 1 mps 761 mmHg 60%
09:00 +25°C° 0 mm 2 mps 761 mmHg 50%
10:00 +28°C° 0 mm 2 mps 761 mmHg 41%
11:00 +29°C° 0 mm 3 mps 760 mmHg 40%
12:00 +30°C° 0 mm 3 mps 760 mmHg 40%
13:00 +32°C° 0 mm 4 mps 759 mmHg 40%
14:00 +30°C° 0 mm 4 mps 758 mmHg 44%
15:00 +30°C° 0 mm 3 mps 758 mmHg 48%
16:00 +29°C° 0 mm 3 mps 757 mmHg 52%
17:00 +26°C° 0 mm 3 mps 758 mmHg 64%
18:00 +24°C° 0 mm 2 mps 758 mmHg 77%
19:00 +20°C° 0 mm 2 mps 759 mmHg 89%
20:00 +20°C° 0 mm 2 mps 759 mmHg 89%
21:00 +20°C° 0 mm 2 mps 760 mmHg 89%
22:00 +19°C° 0 mm 2 mps 760 mmHg 88%
23:00 +19°C° 0 mm 2 mps 760 mmHg 86%
Show more